[[{"header":{"parameterUnit":"m.s-1","parameterCategory":1,"la1":30.2991,"la2":30.254,"lo1":-89.0895,"lo2":-89.0444,"dx":0.0017,"dy":0.0017,"nx":28,"ny":28,"refTime":"2022-12-09T15:00:00:Z","depth":0,"parameterNumber":2,"parameterNumberName":"U-component_of_WINDS"},"data":[0,0,0,0,0,0,0,0,0,0,0,0,0,0,0,0,0,0,0,0,0,0,0,0,0,0,0,0,0,0,0,0,0,0,0,0,0,0,0,0,0,0,0,0,0,0,0,0,0,0,0,0,0,0,0,0,0,0,0.3444,0.3445,0,0.3481,0.3482,0.3482,0.3492,0.3492,0.3491,0.3491,0.353,0.3531,0.3532,0,0,0,0,0,0,0,0,0,0,0,0,0,0.3382,0.3383,0.3444,0.3445,0.3445,0.3481,0.3482,0.3482,0.3492,0.3492,0.3491,0.3491,0.3529,0.3531,0.3532,0,0,0,0,0,0,0,0,0,0,0,0,0,0.3413,0.3383,0.3444,0.3454,0.3456,0.3481,0.3482,0.3482,0.3492,0.3492,0.3491,0.3491,0.3529,0.353,0.3532,0.355,0,0,0.3538,0.3539,0,0,0,0,0,0,0,0,0.3411,0.3415,0.3452,0.3454,0.3455,0.3482,0.3474,0.3505,0.3492,0.3478,0.3491,0.3491,0.3514,0.3517,0.3525,0.3552,0.3554,0.3538,0.3539,0.354,0.354,0,0,0,0,0,0,0,0.3409,0.3414,0.3459,0.3453,0.3455,0.3457,0.3461,0.348,0.3497,0.3479,0.348,0.3484,0.3515,0.3523,0.3526,0.3554,0.3538,0.354,0.3541,0.3542,0.3599,0.3599,0,0,0,0,0,0,0.3405,0.3412,0.3458,0.346,0.3432,0.3458,0.3463,0.3473,0.3497,0.3501,0.3485,0.3485,0.352,0.3523,0.3527,0.355,0.354,0.3542,0.3543,0.3598,0.3599,0.3599,0,0,0,0,0,0,0.3404,0.3409,0.3456,0.3436,0.3442,0.346,0.3472,0.3474,0.3483,0.3501,0.3505,0.349,0.352,0.3524,0.3544,0.3551,0.3543,0.3544,0.3598,0.3598,0.3599,0.3595,0,0,0,0,0,0,0.3402,0.3409,0.3415,0.3436,0.3443,0.3473,0.3472,0.3475,0.3486,0.3486,0.3507,0.351,0.352,0.3542,0.3546,0.3554,0.3546,0.3597,0.3598,0.3599,0.3595,0.3596,0.3596,0,0,0,0,0,0.34,0.3413,0.3416,0.3421,0.3452,0.3473,0.3477,0.3488,0.3486,0.3493,0.3505,0.3509,0.355,0.3544,0.3549,0.3557,0.3597,0.3598,0.3599,0.3594,0.3595,0.3596,0,0,0,0,0,0,0.3392,0.3416,0.3419,0.344,0.3454,0.3475,0.3484,0.3489,0.3504,0.3504,0.3517,0.3522,0.3541,0.3551,0.3544,0.3576,0.3573,0.3575,0.3568,0.3569,0.357,0.3567,0.3547,0,0,0,0,0,0.3393,0.3408,0.3428,0.3444,0.3451,0.3466,0.3476,0.3483,0.3499,0.3505,0.3519,0.3534,0.355,0.356,0.3576,0.3596,0.3601,0.3605,0.3605,0.3606,0.3607,0.3619,0.362,0.3602,0.3602,0.3602,0,0,0.3395,0.341,0.3418,0.3443,0.3455,0.347,0.3472,0.3488,0.3499,0.3508,0.3527,0.3538,0.3556,0.3576,0.3585,0.3585,0.3613,0.3607,0.3607,0.3609,0.362,0.3622,0.3623,0.3603,0.3603,0.3603,0,0,0.3406,0.3419,0.3433,0.3446,0.3464,0.3474,0.3478,0.3498,0.3505,0.3525,0.3532,0.3546,0.3573,0.3586,0.3596,0.3612,0.3616,0.3616,0.362,0.3631,0.3633,0.3634,0.364,0.3641,0.3618,0.3618,0.3618,0,0.3406,0.3429,0.344,0.3456,0.3467,0.3475,0.349,0.3502,0.3525,0.3532,0.3531,0.3566,0.3578,0.3601,0.3605,0.3613,0.3618,0.3614,0.3632,0.3633,0.3634,0.364,0.3642,0.3618,0.3618,0.3618,0.3618,0,0.3428,0.3444,0.3453,0.3475,0.3487,0.3502,0.3516,0.3527,0.3533,0.3543,0.3564,0.3579,0.3598,0.3604,0.3611,0.3629,0.3628,0.3629,0.3627,0.3636,0.3641,0.3643,0.3618,0.3618,0.3618,0.3618,0,0,0.3435,0.3463,0.3466,0.3476,0.3498,0.351,0.3526,0.3545,0.3554,0.3569,0.3583,0.3606,0.3607,0.3619,0.3626,0.3636,0.3647,0.3636,0.3637,0.3637,0.3668,0.3667,0.3669,0.3651,0.3651,0.3651,0.3666,0,0.3448,0.3476,0.3487,0.3511,0.3526,0.3534,0.3548,0.3563,0.3573,0.3587,0.3598,0.3614,0.3615,0.3622,0.3632,0.3644,0.3654,0.3643,0.3663,0.3664,0.3658,0.3672,0.367,0.3684,0.3669,0.3669,0.3669,0,0.3467,0.3483,0.3508,0.3527,0.3534,0.3546,0.3564,0.3578,0.3595,0.3601,0.3614,0.3621,0.3638,0.3635,0.3659,0.3651,0.366,0.3668,0.3668,0.367,0.3667,0.3674,0.3688,0.369,0.3673,0.3672,0.3672,0,0.3469,0.3497,0.3515,0.3524,0.3547,0.3556,0.3566,0.3582,0.3593,0.3609,0.3616,0.3634,0.3643,0.3657,0.3668,0.3665,0.3691,0.3689,0.3697,0.3696,0.3702,0.3701,0.3717,0.3708,0.3708,0.3708,0.3708,0,0.3483,0.3498,0.3517,0.3528,0.3545,0.3558,0.3574,0.3585,0.3599,0.3613,0.3621,0.3634,0.3649,0.3663,0.3673,0.3691,0.3695,0.3701,0.3703,0.37,0.3699,0.3706,0.3705,0.3708,0.3708,0.3708,0.3708,0,0.3488,0.3501,0.3522,0.3543,0.3548,0.356,0.3578,0.3589,0.3599,0.3616,0.3621,0.3638,0.3655,0.3669,0.3691,0.3698,0.3717,0.3719,0.3711,0.3712,0.3719,0.3718,0.374,0.3743,0.3732,0.3732,0.3732,0,0.3496,0.3507,0.3529,0.3539,0.3549,0.3565,0.3576,0.3589,0.36,0.362,0.3629,0.3647,0.3662,0.369,0.3704,0.3721,0.3724,0.3731,0.3727,0.3723,0.3724,0.3723,0.3724,0.3731,0.3731,0.3731,0.3731,0,0.3508,0.3514,0.3529,0.3547,0.356,0.3575,0.359,0.3597,0.3613,0.3625,0.3643,0.3654,0.3678,0.3696,0.3714,0.3725,0.3731,0.3732,0.3735,0.3732,0.3726,0.3729,0.3712,0.3732,0.3731,0.3731,0.3731,0.3731,0.3514,0.3525,0.3542,0.3559,0.3572,0.3585,0.3597,0.3609,0.3625,0.3645,0.3651,0.367,0.3687,0.3713,0.3723,0.3738,0.3738,0.3742,0.3743,0.3744,0.3743,0.3724,0.3742,0.3742,0.3742,0.3742,0.3742,0,0.3526,0.3538,0.3554,0.3574,0.3588,0.3592,0.3609,0.362,0.3636,0.3651,0.3666,0.3687,0.3704,0.372,0.3738,0.3746,0.3749,0.3751,0.375,0.3752,0.3742,0.3738,0.3748,0.3748,0.3748,0.3748,0.3748,0.3748,0.3534,0.3553,0.3561,0.3586,0.3597,0.3616,0.3625,0.3638,0.365,0.3673,0.3687,0.3697,0.3713,0.3732,0.3748,0.3752,0.3758,0.3759,0.3764,0.3754,0.3753,0.3752,0.3748,0.376,0.376,0.3772,0.3773,0.3773]},{"header":{"parameterUnit":"m.s-1","parameterCategory":1,"la1":30.2991,"la2":30.254,"lo1":-89.0895,"lo2":-89.0444,"dx":0.0017,"dy":0.0017,"nx":28,"ny":28,"refTime":"2022-12-09T15:00:00:Z","depth":0,"parameterNumber":3,"parameterNumberName":"V-component_of_WINDS"},"data":[0,0,0,0,0,0,0,0,0,0,0,0,0,0,0,0,0,0,0,0,0,0,0,0,0,0,0,0,0,0,0,0,0,0,0,0,0,0,0,0,0,0,0,0,0,0,0,0,0,0,0,0,0,0,0,0,0,0,2.1989,2.1989,0,2.2053,2.2053,2.2054,2.2078,2.2078,2.2078,2.2078,2.2144,2.2146,2.2148,0,0,0,0,0,0,0,0,0,0,0,0,0,2.1888,2.189,2.1988,2.1989,2.199,2.2053,2.2053,2.2054,2.2078,2.2078,2.2078,2.2078,2.2143,2.2146,2.2148,0,0,0,0,0,0,0,0,0,0,0,0,0,2.194,2.1891,2.1988,2.201,2.2012,2.2052,2.2053,2.2055,2.2078,2.2078,2.2078,2.2077,2.2143,2.2145,2.2148,2.2173,0,0,2.2157,2.2159,0,0,0,0,0,0,0,0,2.1937,2.1944,2.2006,2.2008,2.2011,2.2057,2.2043,2.2094,2.2078,2.2053,2.2078,2.2077,2.2115,2.2121,2.2133,2.2176,2.2178,2.2158,2.2159,2.2161,2.2161,0,0,0,0,0,0,0,2.1933,2.1941,2.2014,2.2007,2.201,2.2016,2.2023,2.2052,2.2085,2.2055,2.2057,2.2064,2.2117,2.213,2.2135,2.2179,2.2158,2.216,2.2162,2.2163,2.2247,2.2247,0,0,0,0,0,0,2.1926,2.1938,2.2012,2.2016,2.1973,2.2018,2.2026,2.2043,2.2085,2.2091,2.2065,2.2065,2.2126,2.2132,2.2137,2.217,2.2161,2.2163,2.2165,2.2246,2.2247,2.2247,0,0,0,0,0,0,2.1924,2.1933,2.2009,2.1977,2.1988,2.202,2.2039,2.2044,2.2058,2.2092,2.2098,2.2072,2.2126,2.2133,2.2164,2.2172,2.2165,2.2167,2.2246,2.2246,2.2247,2.2234,0,0,0,0,0,0,2.1921,2.1932,2.1941,2.1977,2.1989,2.2034,2.2039,2.2046,2.2063,2.2064,2.2101,2.2107,2.2126,2.2159,2.2167,2.2176,2.217,2.2245,2.2246,2.2247,2.2233,2.2234,2.2234,0,0,0,0,0,2.1917,2.1934,2.1941,2.195,2.2001,2.2035,2.2041,2.2063,2.2063,2.2073,2.2095,2.2106,2.217,2.2162,2.2171,2.2181,2.2245,2.2246,2.2247,2.2233,2.2234,2.2234,0,0,0,0,0,0,2.1897,2.1939,2.1947,2.1976,2.2002,2.2039,2.2051,2.2062,2.2088,2.2089,2.2115,2.2123,2.2152,2.217,2.216,2.2208,2.2208,2.2211,2.2195,2.2196,2.2196,2.2191,2.2172,0,0,0,0,0,2.1896,2.1919,2.1955,2.1977,2.1989,2.2018,2.2033,2.2048,2.2075,2.2086,2.2111,2.2137,2.2164,2.2181,2.2207,2.2236,2.2245,2.2248,2.2248,2.2248,2.225,2.2269,2.2271,2.2251,2.2251,2.2251,0,0,2.1894,2.192,2.1933,2.1974,2.1995,2.2019,2.2027,2.2052,2.207,2.209,2.2121,2.214,2.2171,2.2202,2.2216,2.2218,2.2258,2.2249,2.2249,2.2251,2.227,2.2272,2.2273,2.2252,2.2251,2.2251,0,0,2.1903,2.1924,2.1946,2.1967,2.2,2.2019,2.2024,2.206,2.2073,2.2104,2.212,2.2143,2.2187,2.221,2.2227,2.2246,2.2257,2.2254,2.2255,2.2273,2.2274,2.2276,2.2284,2.2286,2.2256,2.2256,2.2256,0,2.1896,2.1933,2.1955,2.198,2.1998,2.2017,2.204,2.206,2.2099,2.2112,2.2112,2.217,2.2192,2.2229,2.2234,2.2246,2.2254,2.225,2.2272,2.2274,2.2276,2.2284,2.2286,2.2255,2.2255,2.2255,2.2255,0,2.1924,2.1949,2.1963,2.2,2.202,2.2043,2.207,2.2088,2.2101,2.212,2.2153,2.218,2.2213,2.2223,2.2236,2.2262,2.2262,2.2267,2.2268,2.2277,2.2285,2.2288,2.2254,2.2254,2.2255,2.2255,0,0,2.1921,2.1972,2.1977,2.1995,2.2033,2.2053,2.2078,2.211,2.2125,2.2152,2.2174,2.2212,2.2217,2.2237,2.2252,2.2268,2.2283,2.2271,2.2273,2.2274,2.2315,2.2312,2.2315,2.229,2.2291,2.2291,2.2313,0,2.1935,2.198,2.2002,2.2038,2.2062,2.2082,2.2104,2.213,2.2149,2.2173,2.2194,2.2221,2.2226,2.2238,2.2254,2.2277,2.2292,2.2276,2.2312,2.2313,2.2304,2.2319,2.2315,2.2333,2.2316,2.2316,2.2317,0,2.1958,2.1985,2.2023,2.206,2.2071,2.209,2.2122,2.2145,2.2175,2.2188,2.2211,2.2226,2.2254,2.2253,2.2293,2.2282,2.2298,2.2312,2.2313,2.2318,2.2316,2.2325,2.234,2.2343,2.2322,2.2321,2.2321,0,2.1953,2.1999,2.2029,2.2043,2.2086,2.21,2.2118,2.2149,2.2167,2.2195,2.2208,2.2239,2.2256,2.228,2.2304,2.2301,2.2342,2.2343,2.2355,2.2354,2.2363,2.2362,2.2382,2.2372,2.2372,2.2372,2.2371,0,2.1967,2.199,2.2027,2.2045,2.2072,2.2098,2.2124,2.2144,2.2171,2.2194,2.2212,2.2234,2.2264,2.2289,2.2308,2.2339,2.2346,2.2359,2.2363,2.2357,2.2356,2.2369,2.2368,2.2372,2.2372,2.2372,2.2372,0,2.1966,2.1992,2.2026,2.2064,2.2074,2.2092,2.2126,2.2145,2.2165,2.2194,2.2202,2.2235,2.2266,2.2292,2.2333,2.2346,2.2378,2.2384,2.2368,2.2371,2.2382,2.2381,2.2411,2.2417,2.2402,2.2402,2.2402,0,2.1974,2.1992,2.2033,2.205,2.2068,2.2095,2.2114,2.214,2.216,2.2197,2.2212,2.2244,2.2272,2.2321,2.2348,2.238,2.2387,2.2395,2.2392,2.2386,2.2388,2.2387,2.239,2.2396,2.2396,2.2396,2.2396,0,2.1985,2.1997,2.2024,2.2056,2.2079,2.2105,2.2132,2.2145,2.2176,2.2197,2.2229,2.2251,2.2293,2.2325,2.2361,2.2381,2.2394,2.2397,2.2401,2.2396,2.2386,2.2393,2.237,2.2396,2.2396,2.2396,2.2396,2.2396,2.1989,2.2007,2.2039,2.2069,2.2092,2.2117,2.2137,2.2161,2.2188,2.2224,2.2238,2.2272,2.2304,2.2352,2.2372,2.2399,2.2401,2.2408,2.2409,2.2411,2.2411,2.2381,2.2406,2.2406,2.2406,2.2406,2.2406,0,2.2002,2.2024,2.2051,2.2089,2.2113,2.2123,2.2154,2.2173,2.2202,2.2231,2.2258,2.2296,2.2328,2.2358,2.2392,2.2408,2.2415,2.2416,2.2416,2.2421,2.2406,2.2399,2.241,2.241,2.241,2.241,2.241,2.241,2.2012,2.2043,2.2059,2.2103,2.2125,2.2157,2.2174,2.2198,2.2221,2.2262,2.2289,2.2309,2.2339,2.2376,2.2406,2.2414,2.2426,2.2426,2.2436,2.2422,2.2421,2.2421,2.2414,2.2428,2.2428,2.2448,2.2449,2.2449]}]]